This demonstration page uses our WeatherBlox Daily Observations layout. Learn more.

Left ArrowRight Arrow

36.17497, -115.13722

Hourly Observations for March 4, 2019

Temp ( °F °C ) Dew Point ( °F °C ) Humidity (%) Winds ( mph kmh ) Pressure ( in mb ) Visibility ( mi km ) Precip ( " mm )
12:53 am 00:53 Clear 54 12.2 38 3.3 55 55 NNE 3 6 29.93 1013 10 16 0.00 0.00
1:53 am 01:53 Clear 50 10 39 3.9 66 66 NNW 6 9 29.95 1014 10 16 0.00 0.00
2:53 am 02:53 Clear 50 10 39 3.9 66 66 NNW 5 7 29.95 1014 10 16 0.00 0.00
3:53 am 03:53 Clear 50 10 38 3.3 63 63 N 6 9 29.96 1015 10 16 0.00 0.00
4:53 am 04:53 Mostly Cloudy 49 9.4 38 3.3 66 66 Calm 29.98 1015 10 16 0.00 0.00
5:53 am 05:53 Clear 48 8.9 38 3.3 68 68 NW 3 6 30.01 1016 10 16 0.00 0.00
6:53 am 06:53 Mostly Cloudy 50 10 39 3.9 66 66 W 6 9 30.03 1017 10 16 0.00 0.00
7:53 am 07:53 Mostly Cloudy 52 11.1 40 4.4 64 64 Calm 30.05 1018 10 16 0.00 0.00
8:53 am 08:53 Sunny 57 13.9 40 4.4 53 53 Calm 30.04 1017 10 16 0.00 0.00
9:53 am 09:53 Sunny 61 16.1 39 3.9 44 44 Calm 30.04 1017 10 16 0.00 0.00
10:53 am 10:53 Sunny 63 17.2 39 3.9 41 41 E 6 9 30.04 1017 10 16 0.00 0.00
11:53 am 11:53 Sunny 65 18.3 39 3.9 39 39 ESE 7 11 30.03 1017 10 16 0.00 0.00
12:53 pm 12:53 Sunny 66 18.9 39 3.9 37 37 ESE 7 11 30.01 1016 10 16 0.00 0.00
1:53 pm 13:53 Sunny 66 18.9 38 3.3 36 36 SSE 6 9 29.99 1016 10 16 0.00 0.00
2:53 pm 14:53 Sunny 67 19.4 38 3.3 35 35 VRB 3 6 29.99 1016 10 16 0.00 0.00
3:53 pm 15:53 Sunny 67 19.4 38 3.3 35 35 SSE 7 11 29.97 1015 10 16 0.00 0.00
4:53 pm 16:53 Sunny 66 18.9 38 3.3 36 36 E 3 6 29.98 1015 10 16 0.00 0.00
5:53 pm 17:53 Clear 63 17.2 38 3.3 40 40 ESE 6 9 30.00 1016 10 16 0.00 0.00
6:53 pm 18:53 Clear 62 16.7 37 2.8 40 40 SE 6 9 30.01 1016 10 16 0.00 0.00
7:53 pm 19:53 Clear 61 16.1 38 3.3 43 43 E 3 6 30.03 1017 10 16 0.00 0.00
8:53 pm 20:53 Clear 60 15.6 39 3.9 46 46 Calm 30.02 1017 10 16 0.00 0.00
9:53 pm 21:53 Clear 58 14.4 40 4.4 51 51 WNW 3 6 30.04 1017 10 16 0.00 0.00
10:53 pm 22:53 Clear 55 12.8 40 4.4 57 57 WNW 3 6 30.04 1017 10 16 0.00 0.00
11:53 pm 23:53 Clear 54 12.2 41 5 62 62 Calm 30.04 1017 10 16 0.00 0.00

Powered by AerisWeather